GEFSSE_con_probscp_000.txt.gz
Probability
1 2 3 2 0 0 0 0 0 2 9 22 28 22 10 2 0 0 0 0 0 0 0 0 0 0 0 0 0 0 0 0 0 0 0 0 0 0 0 0 0 0 0
3 2 3 2 0 0 0 0 0 1 5 15 24 22 12 4 2 1 1 0 0 0 0 0 0 0 0 0 0 0 0 0 0 0 0 0 0 0 0 0 0 0 0
4 2 1 1 1 1 1 1 0 0 1 7 14 17 12 7 4 2 2 1 0 0 0 0 0 0 0 0 0 0 0 0 0 0 0 0 0 0 0 0 0 0 0
3 1 0 1 1 2 2 1 1 1 1 2 5 8 8 6 4 3 2 1 0 1 1 1 1 0 0 0 0 0 0 0 0 0 0 0 0 0 0 0 0 0 0
1 1 1 1 1 1 1 1 4 7 6 2 2 3 6 8 6 4 6 6 4 2 3 3 4 2 1 1 1 1 0 0 0 0 0 0 0 0 0 0 0 0 0
1 2 6 9 7 2 1 3 12 22 19 10 6 10 16 15 7 7 15 20 13 5 5 8 7 4 2 2 3 2 1 0 0 0 0 0 0 1 0 0 0 0 0
1 2 10 19 17 8 5 13 27 37 34 25 21 29 37 26 9 8 20 29 28 21 16 14 9 4 1 1 1 1 0 0 0 0 0 0 0 0 0 0 0 0 0
1 2 7 15 23 24 21 27 39 45 45 39 33 40 46 32 11 8 17 32 45 42 26 12 5 1 0 0 0 0 0 0 0 0 0 0 0 0 0 0 0 0 1
2 3 5 10 20 33 34 33 43 57 61 54 41 36 36 26 15 15 21 33 43 35 17 5 1 0 0 0 0 0 0 0 0 0 0 0 0 0 0 0 0 1 2
5 6 9 12 14 20 23 24 38 57 64 58 45 31 22 17 18 22 29 32 24 12 3 0 0 0 0 0 0 0 0 0 0 0 0 0 0 0 0 0 0 0 1
12 10 10 10 6 5 6 9 19 31 37 38 36 28 18 16 17 18 23 21 9 1 0 0 0 0 0 0 0 0 0 0 0 0 0 0 0 0 0 0 0 0 0
16 10 6 5 2 1 1 1 3 7 9 14 20 20 19 20 16 11 9 7 3 0 0 0 0 0 0 0 0 0 0 0 0 0 0 0 0 0 0 0 0 0 0
7 5 3 1 0 0 0 0 0 0 1 4 8 11 15 15 10 5 1 0 0 0 0 0 0 0 0 0 0 0 0 0 0 0 0 0 0 0 0 0 0 0 0
1 1 1 0 0 0 0 0 0 0 0 0 1 3 5 5 2 1 0 0 0 0 0 0 0 0 0 0 0 0 0 0 0 0 0 0 0 0 0 0 0 0 0
2 1 0 0 0 0 1 1 0 0 0 0 0 0 0 0 0 0 0 0 0 0 0 0 0 0 0 0 0 0 0 0 0 0 0 0 0 0 0 0 0 0 0
4 3 2 1 0 2 4 3 1 0 0 0 0 0 0 0 0 0 0 0 0 0 0 0 0 0 0 0 0 0 0 0 0 0 0 0 0 0 0 0 0 0 0
16 22 21 10 6 10 11 6 1 0 0 0 0 0 0 0 0 0 0 0 0 0 0 0 0 0 0 0 0 0 0 0 0 0 0 0 0 0 0 0 0 0 0
39 56 55 31 20 21 16 6 1 0 0 0 0 0 0 0 0 0 0 1 1 1 0 1 2 4 4 3 1 1 0 0 0 0 0 0 0 0 0 0 0 0 0
65 80 80 58 38 24 12 5 1 0 0 0 0 0 0 0 0 0 5 15 20 15 12 15 16 13 9 5 2 1 0 0 0 0 0 0 0 0 0 0 0 0 0
84 90 87 73 52 25 8 4 2 0 0 0 3 6 6 5 9 12 22 42 51 39 31 33 29 17 7 3 1 1 0 0 0 0 0 0 0 0 0 0 0 0 0
94 94 88 73 51 27 10 6 4 1 1 3 13 27 28 23 29 37 45 58 59 43 32 28 22 10 2 0 0 0 0 0 0 0 0 0 0 0 0 0 0 0 0
93 91 83 68 45 23 12 12 12 9 10 15 32 50 47 36 36 41 49 49 41 29 23 22 19 11 3 1 1 0 0 0 0 0 0 0 0 0 0 0 0 0 0
76 75 73 67 48 24 15 20 26 27 27 31 42 46 37 26 23 26 31 34 32 29 30 34 33 24 12 4 2 0 0 0 0 0 0 0 0 0 0 0 0 0 0
42 44 51 55 44 27 18 24 32 34 31 29 26 21 15 11 11 12 16 24 30 35 41 44 40 33 21 8 2 1 1 1 1 0 0 0 0 0 0 0 0 0 0
13 17 24 29 25 19 16 19 22 22 18 13 8 5 4 5 5 6 9 15 21 27 32 35 32 27 19 9 3 2 1 1 1 0 0 0 0 0 0 0 0 0 0
3 5 10 14 13 11 11 12 13 11 7 4 3 3 2 1 2 3 5 7 10 14 19 22 21 17 12 7 4 2 1 1 1 0 0 0 0 0 0 0 0 0 0

GEFSSE_con_probscp_006.txt.gz
Probability
15 9 4 2 0 1 2 2 2 1 0 0 0 0 0 0 0 0 0 0 0 0 0 0 0 0 0 0 0 0 0 0 0 0 0 0 0 0 0 0 0 0 0
32 16 3 1 0 1 1 1 1 1 1 1 1 0 0 0 0 0 0 0 0 0 0 0 0 0 0 0 0 0 0 0 0 0 0 0 0 0 0 0 0 0 0
40 18 2 0 0 0 0 0 0 2 5 6 5 2 0 0 0 0 0 0 0 0 0 1 1 0 0 0 0 0 0 0 0 0 0 0 0 0 0 0 0 0 0
32 16 2 0 0 0 0 0 1 3 7 12 11 7 3 1 0 0 0 1 3 6 7 7 5 3 2 1 0 0 0 0 0 0 0 1 2 1 0 0 0 0 0
25 12 2 0 0 0 0 0 1 2 6 12 15 14 9 4 1 1 1 5 16 26 26 20 14 9 5 2 0 0 0 0 0 0 1 4 4 2 1 0 0 0 0
11 6 1 0 0 0 0 0 0 1 5 11 19 22 16 7 3 3 6 18 37 50 43 27 17 10 5 2 0 0 0 0 0 0 2 4 3 2 1 0 0 0 0
3 2 0 0 0 0 0 1 1 4 10 19 28 31 25 17 15 16 22 38 54 54 37 19 8 4 2 0 0 0 0 0 0 0 1 2 1 0 0 0 0 0 0
12 8 2 0 0 1 2 4 5 9 19 30 38 40 36 34 36 38 45 57 58 41 19 5 1 0 0 0 0 0 0 0 0 0 0 0 0 0 0 0 0 0 0
29 17 4 0 1 2 4 6 9 15 28 40 45 45 41 41 45 49 56 58 47 25 7 0 0 0 0 0 0 0 0 0 0 0 0 0 0 0 0 0 0 0 0
36 21 6 3 3 2 2 4 7 13 24 34 37 35 30 28 32 37 41 36 24 11 3 0 0 0 0 0 0 0 0 0 0 0 0 0 0 0 0 0 0 0 0
34 23 13 11 8 3 1 1 2 5 11 15 16 15 13 14 17 19 18 13 6 2 0 0 0 0 0 0 0 0 0 0 0 0 0 0 0 0 0 0 0 0 0
40 31 19 15 11 5 1 0 1 1 2 5 7 7 6 9 12 10 5 3 1 0 0 0 0 0 0 0 0 0 0 0 0 0 0 0 0 0 0 0 0 0 0
40 29 15 12 15 11 5 1 2 5 9 15 18 12 7 7 8 6 2 0 0 0 0 0 0 0 0 0 0 0 0 0 0 0 0 0 0 0 0 0 0 0 0
26 24 23 30 40 38 25 10 7 13 22 28 21 9 3 2 2 3 2 0 0 0 0 0 0 0 0 0 0 0 0 0 0 0 0 0 1 1 0 0 0 0 0
30 40 54 66 74 71 55 30 15 17 24 23 13 3 0 0 0 1 1 0 0 1 3 3 1 0 0 0 0 0 0 0 2 5 7 11 15 13 8 4 2 0 0
60 73 83 86 89 83 65 38 16 10 11 9 5 1 0 0 0 0 1 1 1 3 8 7 5 7 8 9 13 16 18 20 24 29 30 33 36 35 34 28 18 9 4
89 94 91 85 85 85 67 40 18 6 3 3 2 1 0 0 1 2 5 7 9 13 15 17 23 31 32 35 45 49 50 52 56 58 57 48 39 42 58 64 52 33 20
93 91 81 71 77 87 80 61 40 25 16 9 3 0 0 0 2 6 14 24 35 41 37 39 53 63 64 68 70 68 65 64 63 61 57 44 30 34 58 78 79 64 50
81 73 59 57 70 87 93 88 72 57 42 27 18 15 11 6 8 18 33 52 69 76 71 66 74 83 84 79 69 59 53 49 43 37 33 28 23 28 39 60 81 85 79
76 59 46 54 74 90 97 98 91 81 68 54 51 51 42 32 35 46 61 77 90 94 90 85 83 85 83 75 59 45 39 31 24 20 17 15 15 17 20 35 60 78 82
80 65 55 66 83 95 99 100 98 93 84 77 77 77 71 63 63 70 79 86 91 93 93 90 86 78 70 63 51 36 26 20 14 14 14 11 6 6 8 17 31 49 64
87 80 75 80 90 96 98 98 98 95 88 81 77 74 66 60 61 66 73 77 79 78 79 80 76 66 52 44 39 26 15 9 7 7 8 7 3 2 3 6 12 31 51
85 83 82 84 86 88 88 89 90 88 81 70 60 50 39 35 39 46 51 57 58 54 52 54 50 42 31 24 21 17 9 4 1 1 1 2 2 1 0 1 5 23 44
65 67 70 70 68 66 65 64 63 62 57 47 34 23 17 19 24 26 31 39 42 35 30 28 23 17 12 10 9 10 9 6 2 0 0 0 1 0 0 1 5 19 35
35 40 44 44 41 37 34 30 27 26 25 19 11 6 6 9 11 12 18 30 32 26 22 17 11 6 4 3 3 3 4 3 1 0 0 0 0 0 0 1 4 15 27
18 22 25 25 22 19 14 9 7 7 6 4 2 1 2 3 4 6 13 24 24 21 19 14 8 5 4 3 1 0 0 0 0 0 0 0 0 1 1 1 3 10 16

GEFSSE_con_probscp_012.txt.gz
Probability
0 0 4 12 16 14 11 6 3 1 2 2 1 1 1 0 0 0 0 0 0 0 0 0 0 0 1 2 2 2 3 3 2 1 0 0 0 0 1 1 0 0 0
0 0 2 5 7 7 5 3 1 0 1 1 2 2 2 1 0 0 0 0 0 0 0 0 0 0 0 1 1 1 2 3 2 1 0 0 0 0 1 1 0 0 0
0 0 0 1 1 1 0 0 0 0 0 0 1 2 2 1 0 0 0 0 0 0 0 0 0 0 0 0 0 0 1 1 2 2 1 0 1 1 2 1 0 0 0
0 0 0 0 0 0 0 0 0 0 0 0 0 1 1 1 1 0 0 0 0 0 0 0 0 0 0 0 0 0 0 1 2 2 1 2 3 4 4 4 3 1 1
0 0 0 0 0 0 0 0 0 0 0 0 0 0 1 2 2 1 1 1 0 0 0 0 0 0 0 0 0 0 0 0 1 1 1 3 7 11 11 10 11 10 7
0 0 0 0 0 0 0 0 1 1 2 1 1 0 1 2 3 4 4 3 1 1 2 1 0 0 0 0 0 0 0 1 1 1 1 4 9 14 14 13 19 20 17
0 0 0 0 0 0 1 2 3 6 7 8 7 4 1 1 2 5 7 5 3 3 4 3 1 0 0 0 0 0 1 2 2 1 1 1 5 8 7 8 13 17 15
0 0 0 0 0 1 3 5 6 9 13 14 13 8 3 1 1 4 6 5 3 3 3 3 1 0 0 0 0 0 0 1 1 0 0 0 1 1 1 1 4 5 5
0 0 0 0 0 1 4 6 6 9 13 15 13 10 4 2 2 2 2 2 1 1 1 1 0 0 0 0 0 0 0 0 0 0 0 0 0 0 0 0 0 0 0
0 0 0 0 0 1 2 3 5 10 13 14 15 13 7 3 2 1 0 0 0 0 0 0 0 0 0 0 0 0 0 0 0 0 0 0 0 0 0 0 0 0 0
1 1 0 0 0 0 0 0 3 8 12 12 13 13 7 2 1 0 0 0 0 0 0 0 0 0 0 0 0 0 0 0 0 0 0 0 0 0 0 0 0 0 0
4 3 1 0 0 0 0 0 1 3 5 5 5 5 3 1 0 0 0 0 0 0 0 0 0 0 0 0 0 0 0 0 0 0 0 0 0 0 0 0 0 0 0
9 7 3 0 0 0 0 0 0 0 0 0 0 0 0 0 0 0 0 0 0 0 0 0 0 0 0 0 0 0 0 0 0 0 0 0 0 0 0 0 0 0 0
16 11 5 1 0 0 0 0 1 1 0 0 0 0 0 0 0 0 0 0 0 0 0 0 0 0 0 0 0 0 0 0 0 0 0 0 1 1 0 0 0 0 1
19 12 7 4 2 1 0 1 1 1 0 0 0 0 0 0 0 0 0 0 0 0 0 0 0 0 0 0 0 0 0 0 0 0 0 2 6 10 10 9 9 8 7
23 16 10 7 3 2 1 1 1 1 0 0 0 0 0 0 0 0 0 0 0 0 0 0 0 0 0 0 0 0 0 0 0 0 0 2 10 22 29 30 30 29 27
31 24 14 8 3 1 1 1 0 0 0 0 0 0 0 0 0 0 0 0 0 0 0 0 0 0 0 0 0 0 0 0 0 0 0 1 7 20 33 44 51 52 51
35 25 13 5 2 1 1 0 0 0 0 0 0 0 0 0 0 0 0 0 0 0 0 0 0 0 0 0 0 0 0 0 0 0 0 0 2 7 16 33 49 58 61
25 17 9 5 4 3 2 1 0 0 0 0 0 0 0 0 0 0 0 0 0 0 0 0 0 0 0 0 0 0 0 0 0 0 0 0 0 0 3 11 24 39 48
11 8 6 6 6 5 4 3 1 0 0 0 0 0 0 0 0 0 0 0 0 0 0 0 0 0 0 0 0 0 0 0 0 0 0 0 0 0 0 1 5 14 22
3 3 3 3 4 5 5 3 1 0 0 0 0 0 0 0 0 0 0 0 0 0 0 0 0 0 0 0 0 0 0 0 0 0 0 0 0 0 0 0 0 2 5
1 1 1 1 2 3 3 2 0 0 0 0 0 0 0 0 0 0 0 0 0 0 0 0 0 0 0 0 0 0 0 0 0 0 0 0 0 0 0 0 0 0 1
0 0 0 0 0 1 1 0 0 0 0 0 0 0 0 0 0 0 0 0 0 0 0 0 0 0 0 0 0 0 0 0 0 0 0 0 0 0 0 0 0 0 0
0 0 0 0 0 0 0 0 0 0 0 0 0 0 0 0 0 0 0 0 0 0 0 0 0 0 0 0 0 0 0 0 0 0 0 0 0 0 0 0 0 0 0
0 0 0 0 0 0 0 0 0 0 0 0 0 0 0 0 0 0 0 0 0 0 0 0 0 0 0 0 0 0 0 0 0 0 0 0 0 0 0 0 0 0 0
0 0 0 0 0 0 0 0 0 0 0 0 0 0 0 0 0 0 0 0 0 0 0 0 0 0 0 0 0 0 0 0 0 0 0 0 0 0 0 0 0 0 0

GEFSSE_con_probscp_018.txt.gz
Probability
0 0 0 1 5 12 13 6 2 2 2 2 2 3 3 2 2 1 0 0 0 0 0 0 0 0 0 0 0 0 0 0 0 0 0 0 0 0 0 0 0 0 0
0 0 0 0 2 5 5 3 1 1 1 1 1 1 1 1 1 0 0 0 0 0 0 0 0 0 0 0 0 0 0 0 0 0 0 0 0 0 0 0 0 0 0
0 0 0 0 0 0 0 0 0 0 0 0 0 0 0 0 0 0 0 0 0 0 0 0 0 0 0 0 0 0 0 0 0 0 0 0 0 0 0 0 0 0 0
0 0 0 0 0 0 0 0 0 0 0 0 0 0 0 0 0 0 0 0 0 0 0 0 0 0 0 0 0 0 0 0 0 0 0 0 0 0 0 0 0 0 0
0 0 0 0 0 0 0 0 0 0 0 0 0 0 0 0 0 0 0 0 0 0 0 0 0 0 0 0 0 0 0 0 0 0 0 1 2 3 2 1 2 1 0
0 0 0 0 0 0 0 0 0 0 0 0 0 0 0 0 0 0 0 0 0 0 0 0 0 1 0 0 0 0 0 0 0 0 1 1 5 7 4 3 4 3 3
0 0 0 0 0 0 0 0 0 0 0 0 0 0 0 0 0 0 0 0 0 0 0 0 0 0 0 0 0 0 0 0 0 0 0 1 3 5 3 3 4 4 5
0 0 0 0 0 0 0 0 0 0 0 0 0 0 0 0 0 0 0 0 0 0 0 0 0 0 0 0 0 0 0 0 0 0 0 0 1 1 1 1 1 2 3
0 0 0 0 0 0 0 0 0 0 0 0 0 0 0 0 0 0 0 0 0 0 0 0 0 0 0 0 0 0 0 0 0 0 0 0 0 0 0 0 0 0 0
0 0 0 0 0 0 0 0 0 0 0 0 0 0 0 0 0 0 0 0 0 0 0 0 0 0 0 0 0 0 0 0 0 0 0 0 0 0 0 0 0 0 0
1 0 0 1 0 0 0 0 0 0 0 0 0 0 0 0 0 0 0 0 0 0 0 0 0 0 0 0 0 0 0 0 0 0 0 0 0 0 0 0 0 0 0
1 0 0 0 0 0 0 0 0 0 0 0 0 0 0 0 0 0 0 0 0 0 0 0 0 0 0 0 0 0 0 0 0 0 0 1 1 0 0 0 0 1 1
1 0 0 0 0 0 0 0 0 0 0 0 0 0 0 0 0 0 0 0 0 0 0 0 0 0 0 0 0 0 0 0 0 0 1 3 5 5 3 3 5 7 8
0 0 0 0 0 0 0 0 0 0 0 0 0 0 0 0 0 0 0 0 0 0 0 0 0 0 0 0 0 0 0 0 0 0 1 4 9 14 16 16 18 22 25
0 0 0 0 0 0 0 0 0 0 0 0 0 0 0 0 0 0 0 0 0 0 0 0 0 0 0 0 0 0 0 0 0 0 0 2 7 16 24 28 29 35 42
0 0 0 0 0 0 0 0 0 0 0 0 0 0 0 0 0 0 0 0 0 0 0 0 0 0 0 0 0 0 0 0 0 0 0 0 2 8 14 20 26 35 41
2 1 0 0 0 0 0 0 0 0 0 0 0 0 0 0 0 0 0 0 0 0 0 0 0 0 0 0 0 0 0 0 0 0 0 0 0 1 2 5 12 19 22
4 3 1 0 0 0 0 0 0 0 0 0 0 0 0 0 0 0 0 0 0 0 0 0 0 0 0 0 0 0 0 0 0 0 0 0 0 0 0 0 2 5 6
5 3 1 0 0 0 0 0 0 0 0 0 0 0 0 0 0 0 0 0 0 0 0 0 0 0 0 0 0 0 0 0 0 0 0 0 0 0 0 0 0 1 1
2 1 0 0 0 0 0 0 0 0 0 0 0 0 0 0 0 0 0 0 0 0 0 0 0 0 0 0 0 0 0 0 0 0 0 0 0 0 0 0 0 0 0
1 0 0 0 0 0 0 0 0 0 0 0 0 0 0 0 0 0 0 0 0 0 0 0 0 0 0 0 0 0 0 0 0 0 0 0 0 0 0 0 0 0 0
0 0 0 0 0 0 0 0 0 0 0 0 0 0 0 0 0 0 0 0 0 0 0 0 0 0 0 0 0 0 0 0 0 0 0 0 0 0 0 0 0 0 0
0 0 0 0 0 0 0 0 0 0 0 0 0 0 0 0 0 0 0 0 0 0 0 0 0 0 0 0 0 0 0 0 0 0 0 0 0 0 0 0 0 0 0
0 0 0 0 0 0 0 0 0 0 0 0 0 0 0 0 0 0 0 0 0 0 0 0 0 0 0 0 0 0 0 0 0 0 0 0 0 0 0 0 0 0 0
0 0 0 0 0 0 0 0 0 0 0 0 0 0 0 0 0 0 0 0 0 0 0 0 0 0 0 0 0 0 0 0 0 0 0 0 0 0 0 0 0 0 0
0 0 0 0 0 0 0 0 0 0 0 0 0 0 0 0 0 0 0 0 0 0 0 0 0 0 0 0 0 0 0 0 0 0 0 0 0 0 0 0 0 0 0